GW6937 Weather Reports


Display with metric or nautical units.
time (UTC)temp
F
wind
direction
speed
MPH
gust
MPH
rain 1hr
in
rain 24hr
in
rain mn
in
humidity
%
barometer
mb
20260503223635 64 198 4.0 7.0 0.00 0.00 0.00 34 1048.5
20260503223131 64 247 3.0 7.0 0.00 0.00 0.00 33 1048.3
20260503222629 64 233 5.0 7.0 0.00 0.00 0.00 32 1048.7
20260503222126 64 249 4.0 7.0 0.00 0.00 0.00 34 1048.8
20260503221624 64 246 3.0 8.0 0.00 0.00 0.00 32 1048.8
20260503221122 64 232 5.0 9.0 0.00 0.00 0.00 32 1048.7
20260503220618 64 265 3.0 6.0 0.00 0.00 0.00 33 1048.9
20260503220115 64 240 2.0 7.0 0.00 0.00 0.00 36 1049.0
20260503215612 65 280 2.0 7.0 0.00 0.00 0.00 32 1049.2
20260503215108 64 299 2.0 4.0 0.00 0.00 0.00 34 1049.2
20260503214607 64 205 5.0 7.0 0.00 0.00 0.00 34 1048.8
20260503214103 64 275 3.0 6.0 0.00 0.00 0.00 33 1049.0
20260503213602 63 260 6.0 10.0 0.00 0.00 0.00 32 1048.8
20260503213058 63 216 4.0 11.0 0.00 0.00 0.00 33 1048.9
20260503212555 64 228 4.0 8.0 0.00 0.00 0.00 34 1049.0
20260503212053 64 268 6.0 11.0 0.00 0.00 0.00 33 1049.1
20260503211550 63 255 5.0 9.0 0.00 0.00 0.00 31 1049.2
20260503211045 63 312 7.0 10.0 0.00 0.00 0.00 30 1049.4
20260503210542 63 244 5.0 7.0 0.00 0.00 0.00 34 1049.3
20260503210038 63 252 8.0 10.0 0.00 0.00 0.00 32 1049.4
20260503205535 63 257 7.0 10.0 0.00 0.00 0.00 34 1049.7
20260503205031 63 255 6.0 11.0 0.00 0.00 0.00 32 1049.3
20260503204528 63 265 5.0 9.0 0.00 0.00 0.00 35 1049.5
20260503204025 63 275 4.0 10.0 0.00 0.00 0.00 33 1049.6
20260503203523 63 206 5.0 11.0 0.00 0.00 0.00 33 1049.5
20260503203020 63 153 8.0 11.0 0.00 0.00 0.00 30 1049.9
20260503202517 64 259 7.0 15.0 0.00 0.00 0.00 32 1050.0
20260503202015 64 209 2.0 8.0 0.00 0.00 0.00 36 1049.9
20260503201513 63 259 4.0 9.0 0.00 0.00 0.00 35 1050.2
20260503201010 63 290 5.0 11.0 0.00 0.00 0.00 31 1050.4
20260503200506 62 307 3.0 3.0 0.00 0.00 0.00 34 1050.3
20260503200003 62 271 6.0 9.0 0.00 0.00 0.00 32 1050.2
20260503195500 63 238 6.0 9.0 0.00 0.00 0.00 33 1050.7
20260503194956 63 213 3.0 8.0 0.00 0.00 0.00 39 1050.8
20260503194454 63 243 3.0 7.0 0.00 0.00 0.00 35 1050.7
20260503193949 63 258 6.0 9.0 0.00 0.00 0.00 34 1051.0
20260503193445 63 226 5.0 7.0 0.00 0.00 0.00 31 1051.0
20260503192940 63 224 3.0 6.0 0.00 0.00 0.00 33 1051.2
20260503192437 62 12 1.0 7.0 0.00 0.00 0.00 38 1051.1
20260503191932 62 276 3.0 8.0 0.00 0.00 0.00 34 1051.3
20260503191431 62 250 4.0 10.0 0.00 0.00 0.00 33 1051.2
20260503190926 62 266 6.0 9.0 0.00 0.00 0.00 35 1051.3
20260503190424 62 229 4.0 9.0 0.00 0.00 0.00 33 1051.3
20260503185921 62 195 4.0 7.0 0.00 0.00 0.00 32 1051.3
20260503185418 62 273 4.0 8.0 0.00 0.00 0.00 32 1051.6
20260503184916 61 261 6.0 8.0 0.00 0.00 0.00 35 1051.7
20260503184413 62 251 7.0 9.0 0.00 0.00 0.00 37 1051.6
20260503183910 62 253 3.0 11.0 0.00 0.00 0.00 31 1051.8
20260503183406 61 157 6.0 9.0 0.00 0.00 0.00 32 1051.6
20260503182903 60 172 5.0 10.0 0.00 0.00 0.00 35 1052.0
20260503182402 61 269 9.0 10.0 0.00 0.00 0.00 34 1051.8
20260503181859 60 215 4.0 4.0 0.00 0.00 0.00 34 1052.0
20260503181356 61 237 5.0 8.0 0.00 0.00 0.00 35 1052.2
20260503180853 61 231 6.0 8.0 0.00 0.00 0.00 35 1051.9
20260503180351 61 165 6.0 8.0 0.00 0.00 0.00 35 1051.8
20260503175847 60 230 6.0 9.0 0.00 0.00 0.00 38 1052.1
20260503175345 60 261 7.0 11.0 0.00 0.00 0.00 35 1052.5
20260503174840 61 254 6.0 8.0 0.00 0.00 0.00 30 1052.6
20260503174339 61 251 5.0 6.0 0.00 0.00 0.00 33 1052.7
20260503173834 60 256 3.0 7.0 0.00 0.00 0.00 33 1052.5
20260503173330 60 234 2.0 4.0 0.00 0.00 0.00 31 1052.9
20260503172827 60 305 4.0 8.0 0.00 0.00 0.00 32 1052.7
20260503172325 59 231 3.0 10.0 0.00 0.00 0.00 37 1052.8
20260503171821 60 282 5.0 8.0 0.00 0.00 0.00 39 1053.0
20260503171318 59 230 3.0 7.0 0.00 0.00 0.00 38 1053.0
20260503170815 59 221 2.0 9.0 0.00 0.00 0.00 37 1053.2
20260503170311 59 223 9.0 11.0 0.00 0.00 0.00 34 1053.0
20260503150704 56 214 4.0 7.0 0.00 0.00 0.00 37 1054.5
20260503150200 56 289 5.0 7.0 0.00 0.00 0.00 37 1054.4
20260503140124 53 219 2.0 3.0 0.00 0.00 0.00 51 1054.6
20260503131054 46 172 4.0 3.0 0.00 0.00 0.00 73 1054.3
20260503130550 45 168 2.0 4.0 0.00 0.00 0.00 76 1054.3
20260503110441 30 133 0.0 0.0 0.00 0.00 0.00 96 1053.7
20260503090332 30 48 0.0 0.0 0.00 0.00 0.00 95 1052.9
20260503081300 32 48 0.0 0.0 0.00 0.00 0.00 95 1052.9
20260503080756 32 48 0.0 0.0 0.00 0.00 0.00 95 1052.8
20260503080253 32 48 0.0 0.0 0.00 0.00 0.00 95 1052.7
20260503072730 33 48 0.0 0.0 0.00 0.00 0.00 95 1052.5
20260503072226 33 48 0.0 0.0 0.00 0.00 0.00 94 1052.6
20260503071723 33 48 0.0 0.0 0.00 0.00 0.00 94 1052.6
20260503071220 34 48 0.0 0.0 0.00 0.00 0.00 94 1052.7
20260503070716 34 49 0.0 1.0 0.00 0.00 0.00 94 1052.4
20260503070215 34 49 1.0 1.0 0.00 0.00 0.00 94 1052.6
20260503060139 34 48 0.0 0.0 0.00 0.00 0.00 90 1052.8
20260503054626 36 48 0.0 0.0 0.00 0.00 0.00 90 1052.6
20260503054123 35 48 0.0 0.0 0.00 0.00 0.00 89 1052.7
20260503053621 35 48 0.0 0.0 0.00 0.00 0.00 88 1052.8
20260503053120 35 48 0.0 0.0 0.00 0.00 0.00 89 1052.9
20260503052616 35 48 0.0 0.0 0.00 0.00 0.00 87 1052.8
20260503052112 35 48 0.0 0.0 0.00 0.00 0.00 86 1052.9
20260503051608 36 48 0.0 0.0 0.00 0.00 0.00 86 1053.0
20260503051106 36 48 0.0 0.0 0.00 0.00 0.00 85 1052.9
20260503050601 37 48 0.0 0.0 0.00 0.00 0.00 83 1053.1
20260503050059 38 48 0.0 0.0 0.00 0.00 0.00 81 1052.8
20260503045555 39 48 0.0 0.0 0.00 0.00 0.00 80 1052.9
20260503045053 40 48 0.0 1.0 0.00 0.00 0.00 77 1052.9
20260503044549 40 48 1.0 1.0 0.00 0.00 0.00 74 1052.8
20260503044047 40 47 1.0 1.0 0.00 0.00 0.00 75 1052.7
20260503043543 40 47 0.0 0.0 0.00 0.00 0.00 78 1052.8
20260503043040 40 47 0.0 0.0 0.00 0.00 0.00 79 1052.8
20260503042537 40 47 0.0 0.0 0.00 0.00 0.00 78 1052.9
20260503042033 39 47 0.0 1.0 0.00 0.00 0.00 76 1052.8
20260503041530 39 47 0.0 0.0 0.00 0.00 0.00 78 1052.8
20260503041028 40 47 0.0 0.0 0.00 0.00 0.00 77 1052.9
20260503040525 39 47 1.0 1.0 0.00 0.00 0.00 76 1052.6
20260503040022 39 47 0.0 0.0 0.00 0.00 0.00 80 1052.5
20260503035519 40 47 0.0 0.0 0.00 0.00 0.00 80 1052.7
20260503035016 41 47 0.0 0.0 0.00 0.00 0.00 78 1052.7
20260503034514 41 47 0.0 1.0 0.00 0.00 0.00 76 1052.7
20260503034010 40 46 0.0 1.0 0.00 0.00 0.00 77 1052.5
20260503033508 40 46 1.0 1.0 0.00 0.00 0.00 82 1052.5
20260503033006 40 46 1.0 1.0 0.00 0.00 0.00 84 1052.6
20260503032504 38 45 0.0 0.0 0.00 0.00 0.00 88 1052.6
20260503032002 38 45 0.0 0.0 0.00 0.00 0.00 89 1052.5
20260503031459 38 45 0.0 0.0 0.00 0.00 0.00 88 1052.3
20260503030955 39 45 0.0 0.0 0.00 0.00 0.00 86 1052.6
20260503030452 39 45 0.0 0.0 0.00 0.00 0.00 86 1052.5
20260503025949 39 45 0.0 0.0 0.00 0.00 0.00 85 1052.4
20260503025446 40 45 0.0 0.0 0.00 0.00 0.00 83 1052.5
20260503024943 40 45 0.0 0.0 0.00 0.00 0.00 82 1052.4
20260503024439 41 45 0.0 0.0 0.00 0.00 0.00 81 1052.6
20260503023937 41 45 0.0 0.0 0.00 0.00 0.00 83 1052.4
20260503023434 40 45 0.0 0.0 0.00 0.00 0.00 84 1052.3
20260503022931 40 45 0.0 0.0 0.00 0.00 0.00 84 1052.2
20260503022426 40 45 0.0 0.0 0.00 0.00 0.00 82 1052.1
20260503021922 40 45 0.0 0.0 0.00 0.00 0.00 81 1052.0
20260503021418 41 45 0.0 0.0 0.00 0.00 0.00 81 1051.8
20260503020916 41 45 0.0 0.0 0.00 0.00 0.00 79 1051.8
20260503020413 41 45 0.0 0.0 0.00 0.00 0.00 78 1051.9
20260503015909 42 45 0.0 0.0 0.00 0.00 0.00 77 1051.6
20260503015407 42 45 0.0 0.0 0.00 0.00 0.00 77 1051.6
20260503014902 42 45 0.0 0.0 0.00 0.00 0.00 76 1051.5
20260503014400 42 45 0.0 0.0 0.00 0.00 0.00 76 1051.7
20260503013858 43 45 0.0 1.0 0.00 0.00 0.00 76 1051.3
20260503013354 42 38 2.0 2.0 0.00 0.00 0.00 75 1051.2
20260503012851 43 346 0.0 0.0 0.00 0.00 0.00 76 1051.2
20260503012349 43 346 0.0 0.0 0.00 0.00 0.00 75 1051.0
20260503011846 44 346 0.0 0.0 0.00 0.00 0.00 72 1051.1
20260503011343 45 346 0.0 0.0 0.00 0.00 0.00 70 1051.1
20260503010839 44 346 0.0 0.0 0.00 0.00 0.00 70 1051.1
20260503010336 45 346 0.0 0.0 0.00 0.00 0.00 68 1051.0
20260503005833 45 346 0.0 0.0 0.00 0.00 0.00 68 1050.8
20260503005331 46 346 0.0 0.0 0.00 0.00 0.00 67 1050.8
20260503004826 47 346 0.0 0.0 0.00 0.00 0.00 64 1050.8
20260503004324 47 346 0.0 0.0 0.00 0.00 0.00 63 1050.8
20260503003822 47 346 0.0 0.0 0.00 0.00 0.00 62 1050.8
20260503003318 48 346 0.0 0.0 0.00 0.00 0.00 59 1050.4
20260503002815 49 346 0.0 0.0 0.00 0.00 0.00 59 1050.8
20260503002312 50 346 0.0 0.0 0.00 0.00 0.00 56 1050.5
20260503001809 50 346 0.0 1.0 0.00 0.00 0.00 54 1050.5
20260503001305 51 332 1.0 1.0 0.00 0.00 0.00 53 1050.4
20260503000803 51 331 0.0 1.0 0.00 0.00 0.00 53 1050.3
20260503000300 51 331 0.0 1.0 0.00 0.00 0.00 55 1050.2
20260502235757 51 322 1.0 1.0 0.00 0.00 0.00 54 1050.3
20260502235254 52 338 1.0 2.0 0.00 0.00 0.00 49 1050.3
20260502234750 53 341 1.0 2.0 0.00 0.00 0.00 48 1050.2
20260502234248 52 353 1.0 3.0 0.00 0.00 0.00 50 1050.5
20260502233744 52 340 1.0 2.0 0.00 0.00 0.00 49 1050.2
20260502233241 52 333 1.0 4.0 0.00 0.00 0.00 50 1050.4
20260502232736 52 3 3.0 3.0 0.00 0.00 0.00 47 1050.0
20260502232234 52 16 3.0 3.0 0.00 0.00 0.00 47 1050.2
20260502231730 53 26 2.0 4.0 0.00 0.00 0.00 46 1050.3
20260502231228 53 337 4.0 6.0 0.00 0.00 0.00 46 1050.3
20260502230727 54 334 5.0 7.0 0.00 0.00 0.00 45 1050.2
20260502230225 55 345 3.0 3.0 0.00 0.00 0.00 45 1050.1
20260502225720 55 2 4.0 8.0 0.00 0.00 0.00 42 1050.3
20260502225218 55 299 4.0 7.0 0.00 0.00 0.00 44 1050.1
20260502224714 55 324 4.0 4.0 0.00 0.00 0.00 45 1050.3
20260502224211 54 343 4.0 6.0 0.00 0.00 0.00 46 1050.1